Simultaneous Nadir Overpasses (SNOs) Predictions

Prediction of SNOs between GOES-16 and TERRA Satellite Orbit:

Table of predicted SNOs for the next 14.0 days since TLE Epoch: 7/1/2023
Index Date Time (GOES-16) GOES-16 Lat,Lon TERRA Lat,Lon Distance(km) Time Diff (sec)
1 07/02/2023 03:09:13 -0.00, -75.20 -0.10, -75.72 59.36 80
2 07/04/2023 02:50:10 0.01, -75.20 0.72, -71.76 390.35 80
3 07/04/2023 15:13:01 -0.01, -75.21 0.28, -76.67 166.08 80
4 07/06/2023 14:53:58 -0.02, -75.22 -0.55, -72.72 284.50 80
5 07/07/2023 03:16:57 0.02, -75.22 -0.51, -77.65 276.87 80
6 07/09/2023 02:57:54 0.03, -75.24 0.35, -73.69 175.12 80
7 07/09/2023 15:20:45 -0.03, -75.25 0.66, -78.60 380.81 80
8 07/11/2023 15:01:41 -0.03, -75.28 -0.15, -74.64 72.28 80
9 07/12/2023 03:24:40 0.02, -75.28 -0.89, -79.57 488.30 80
10 07/14/2023 03:08:16 0.03, -75.31 -0.06, -75.61 34.71 80
